QPF
0.05 0.06 0.06 0.05 0.05 0.05 0.06 0.08 0.08 0.07 0.05 0.03 0.02 0.02 0.02 0.02 0.02 0.01 0.01 0.01 0.02 0.02 0.02 0.01 0.01 0.01 0.01 0.01 0.03 0.05 0.05 0.04 0.03 0.02 0.02 0.03 0.05 0.06
0.04 0.05 0.05 0.05 0.04 0.04 0.04 0.05 0.05 0.07 0.07 0.04 0.03 0.03 0.03 0.02 0.03 0.02 0.01 0.02 0.02 0.02 0.02 0.01 0.01 0.01 0.02 0.02 0.03 0.04 0.05 0.03 0.02 0.02 0.02 0.02 0.03 0.04
0.04 0.04 0.05 0.06 0.06 0.04 0.04 0.04 0.05 0.06 0.07 0.06 0.04 0.04 0.04 0.04 0.04 0.03 0.02 0.02 0.03 0.03 0.02 0.02 0.02 0.02 0.02 0.03 0.03 0.05 0.05 0.04 0.03 0.02 0.02 0.02 0.02 0.04
0.03 0.04 0.05 0.07 0.05 0.04 0.04 0.04 0.05 0.06 0.06 0.06 0.04 0.05 0.06 0.05 0.04 0.04 0.03 0.02 0.03 0.04 0.03 0.03 0.02 0.02 0.03 0.03 0.03 0.04 0.05 0.05 0.04 0.02 0.02 0.02 0.02 0.04
0.04 0.04 0.04 0.04 0.04 0.02 0.02 0.03 0.03 0.03 0.04 0.04 0.03 0.04 0.05 0.05 0.03 0.03 0.03 0.03 0.03 0.03 0.03 0.03 0.03 0.03 0.03 0.03 0.04 0.04 0.05 0.05 0.04 0.03 0.02 0.02 0.02 0.03
0.02 0.03 0.03 0.03 0.03 0.02 0.02 0.02 0.02 0.02 0.03 0.02 0.02 0.02 0.03 0.04 0.03 0.02 0.03 0.04 0.04 0.03 0.03 0.03 0.04 0.04 0.04 0.04 0.04 0.04 0.05 0.05 0.05 0.04 0.05 0.03 0.02 0.03
0.01 0.01 0.02 0.02 0.03 0.03 0.02 0.02 0.02 0.02 0.02 0.01 0.01 0.01 0.02 0.04 0.02 0.02 0.02 0.03 0.04 0.04 0.04 0.04 0.04 0.05 0.05 0.05 0.05 0.05 0.05 0.05 0.05 0.05 0.05 0.05 0.04 0.04
0.01 0.01 0.01 0.02 0.02 0.02 0.02 0.02 0.02 0.02 0.01 0.01 0.01 0.01 0.01 0.02 0.01 0.01 0.02 0.02 0.03 0.04 0.04 0.04 0.05 0.07 0.07 0.06 0.08 0.08 0.07 0.07 0.05 0.04 0.04 0.04 0.04 0.04
0.01 0.01 0.01 0.02 0.01 0.01 0.01 0.01 0.02 0.02 0.02 0.01 0.01 0.01 0.01 0.02 0.02 0.02 0.03 0.03 0.03 0.03 0.04 0.06 0.07 0.08 0.09 0.09 0.09 0.09 0.08 0.08 0.07 0.05 0.04 0.03 0.03 0.03
0.01 0.01 0.01 0.01 0.01 0.02 0.02 0.02 0.02 0.02 0.02 0.01 0.01 0.02 0.03 0.03 0.03 0.03 0.04 0.04 0.05 0.06 0.05 0.06 0.08 0.08 0.08 0.08 0.10 0.10 0.08 0.05 0.05 0.04 0.04 0.03 0.03 0.02
0.01 0.01 0.01 0.01 0.04 0.05 0.04 0.04 0.03 0.02 0.01 0.01 0.01 0.02 0.05 0.06 0.06 0.05 0.06 0.07 0.08 0.08 0.07 0.07 0.08 0.07 0.07 0.06 0.08 0.09 0.08 0.06 0.05 0.04 0.04 0.03 0.02 0.01
0.01 0.01 0.02 0.02 0.05 0.07 0.05 0.04 0.03 0.02 0.01 0.01 0.01 0.02 0.02 0.04 0.06 0.07 0.08 0.08 0.07 0.09 0.09 0.08 0.08 0.06 0.06 0.06 0.06 0.06 0.06 0.06 0.06 0.05 0.03 0.02 0.02 0.01
0.01 0.02 0.03 0.04 0.05 0.05 0.05 0.04 0.03 0.02 0.02 0.02 0.01 0.01 0.01 0.02 0.04 0.05 0.06 0.07 0.08 0.08 0.08 0.07 0.07 0.06 0.06 0.05 0.05 0.05 0.05 0.04 0.04 0.04 0.03 0.02 0.02 0.01
0.01 0.02 0.02 0.03 0.03 0.03 0.03 0.03 0.02 0.01 0.01 0.01 0.01 0.01 0.01 0.01 0.02 0.03 0.04 0.05 0.06 0.06 0.06 0.06 0.06 0.07 0.06 0.05 0.05 0.05 0.05 0.04 0.04 0.04 0.03 0.03 0.02 0.02
0.00 0.01 0.01 0.01 0.01 0.01 0.01 0.01 0.01 0.00 0.00 0.00 0.00 0.01 0.01 0.01 0.01 0.02 0.03 0.04 0.04 0.05 0.04 0.05 0.05 0.05 0.06 0.05 0.05 0.04 0.04 0.05 0.04 0.04 0.03 0.03 0.02 0.02
0.00 0.00 0.00 0.00 0.00 0.00 0.00 0.00 0.00 0.00 0.00 0.00 0.01 0.01 0.01 0.01 0.02 0.02 0.03 0.03 0.03 0.04 0.04 0.04 0.04 0.05 0.06 0.06 0.05 0.06 0.06 0.06 0.05 0.04 0.04 0.03 0.02 0.02
0.02 0.01 0.00 0.00 0.00 0.00 0.00 0.00 0.01 0.00 0.00 0.01 0.01 0.01 0.01 0.01 0.02 0.02 0.02 0.02 0.02 0.03 0.03 0.04 0.05 0.06 0.08 0.08 0.08 0.08 0.08 0.07 0.06 0.05 0.05 0.04 0.03 0.02
0.03 0.02 0.01 0.01 0.01 0.01 0.01 0.01 0.01 0.01 0.01 0.01 0.01 0.01 0.02 0.02 0.02 0.02 0.02 0.02 0.03 0.04 0.03 0.03 0.05 0.05 0.07 0.09 0.09 0.07 0.07 0.06 0.06 0.05 0.04 0.04 0.04 0.03
0.04 0.03 0.02 0.02 0.02 0.02 0.01 0.01 0.01 0.01 0.01 0.01 0.02 0.02 0.02 0.03 0.02 0.02 0.02 0.03 0.04 0.04 0.04 0.04 0.05 0.06 0.05 0.05 0.07 0.06 0.04 0.04 0.05 0.05 0.04 0.04 0.04 0.04
0.04 0.03 0.03 0.03 0.03 0.03 0.03 0.02 0.02 0.02 0.02 0.02 0.02 0.02 0.03 0.03 0.03 0.02 0.02 0.03 0.04 0.05 0.05 0.04 0.04 0.03 0.04 0.03 0.04 0.04 0.04 0.03 0.03 0.04 0.05 0.05 0.04 0.04
0.05 0.04 0.03 0.02 0.02 0.02 0.02 0.03 0.03 0.02 0.02 0.02 0.02 0.03 0.03 0.03 0.02 0.02 0.02 0.05 0.06 0.05 0.05 0.04 0.03 0.03 0.02 0.03 0.04 0.04 0.04 0.04 0.03 0.03 0.03 0.04 0.04 0.04
0.03 0.04 0.03 0.03 0.03 0.03 0.03 0.03 0.04 0.03 0.03 0.02 0.03 0.03 0.03 0.03 0.03 0.03 0.05 0.06 0.05 0.05 0.04 0.03 0.03 0.03 0.03 0.04 0.04 0.04 0.04 0.04 0.03 0.02 0.02 0.03 0.03 0.03
0.03 0.02 0.02 0.03 0.03 0.03 0.03 0.03 0.03 0.03 0.04 0.04 0.05 0.05 0.05 0.05 0.06 0.06 0.05 0.04 0.04 0.04 0.04 0.04 0.04 0.04 0.04 0.04 0.05 0.05 0.04 0.04 0.03 0.03 0.02 0.03 0.03 0.03
MSLP
1014.57 1014.90 1015.19 1015.43 1015.65 1015.84 1016.03 1016.24 1016.47 1016.75 1017.06 1017.41 1017.80 1018.20 1018.60 1018.99 1019.34 1019.65 1019.88 1020.03 1020.08 1020.03 1019.88 1019.63 1019.30 1018.92 1018.52 1018.14 1017.82 1017.58 1017.46 1017.46 1017.58 1017.80 1018.11 1018.45 1018.81 1019.14
1014.08 1014.43 1014.72 1014.97 1015.18 1015.37 1015.56 1015.77 1016.02 1016.31 1016.67 1017.08 1017.52 1017.98 1018.45 1018.89 1019.30 1019.64 1019.92 1020.13 1020.24 1020.28 1020.23 1020.11 1019.93 1019.69 1019.43 1019.16 1018.92 1018.72 1018.60 1018.55 1018.58 1018.70 1018.87 1019.09 1019.33 1019.56
1013.54 1013.89 1014.18 1014.43 1014.64 1014.83 1015.03 1015.26 1015.54 1015.88 1016.28 1016.73 1017.23 1017.74 1018.25 1018.73 1019.16 1019.54 1019.84 1020.08 1020.25 1020.36 1020.42 1020.42 1020.39 1020.31 1020.20 1020.07 1019.94 1019.82 1019.71 1019.65 1019.62 1019.65 1019.71 1019.81 1019.93 1020.06
1013.00 1013.34 1013.62 1013.87 1014.09 1014.29 1014.51 1014.77 1015.08 1015.45 1015.89 1016.39 1016.92 1017.47 1018.00 1018.49 1018.93 1019.30 1019.61 1019.87 1020.08 1020.25 1020.39 1020.51 1020.61 1020.69 1020.74 1020.76 1020.75 1020.72 1020.68 1020.63 1020.58 1020.55 1020.54 1020.55 1020.57 1020.61
1012.51 1012.82 1013.10 1013.34 1013.56 1013.78 1014.03 1014.31 1014.65 1015.06 1015.53 1016.05 1016.60 1017.16 1017.69 1018.17 1018.59 1018.94 1019.24 1019.50 1019.72 1019.93 1020.14 1020.36 1020.57 1020.78 1020.98 1021.14 1021.26 1021.34 1021.38 1021.38 1021.35 1021.32 1021.27 1021.24 1021.21 1021.18
1012.11 1012.39 1012.64 1012.88 1013.11 1013.35 1013.62 1013.93 1014.29 1014.72 1015.20 1015.73 1016.27 1016.81 1017.32 1017.77 1018.16 1018.48 1018.75 1018.99 1019.21 1019.44 1019.69 1019.97 1020.27 1020.58 1020.89 1021.17 1021.41 1021.60 1021.74 1021.82 1021.85 1021.86 1021.84 1021.81 1021.77 1021.73
1011.81 1012.05 1012.29 1012.53 1012.76 1013.02 1013.30 1013.63 1014.00 1014.43 1014.90 1015.41 1015.93 1016.44 1016.90 1017.31 1017.66 1017.94 1018.18 1018.39 1018.60 1018.83 1019.10 1019.40 1019.75 1020.13 1020.51 1020.88 1021.22 1021.50 1021.74 1021.91 1022.04 1022.13 1022.18 1022.21 1022.21 1022.20
1011.58 1011.80 1012.03 1012.26 1012.51 1012.78 1013.07 1013.40 1013.77 1014.18 1014.63 1015.10 1015.58 1016.04 1016.45 1016.82 1017.12 1017.37 1017.57 1017.75 1017.94 1018.16 1018.42 1018.73 1019.09 1019.49 1019.91 1020.33 1020.73 1021.09 1021.42 1021.69 1021.92 1022.11 1022.27 1022.39 1022.49 1022.55
1011.40 1011.60 1011.83 1012.07 1012.33 1012.61 1012.90 1013.22 1013.57 1013.96 1014.36 1014.78 1015.20 1015.61 1015.97 1016.29 1016.56 1016.77 1016.96 1017.12 1017.29 1017.49 1017.73 1018.02 1018.37 1018.76 1019.18 1019.61 1020.04 1020.46 1020.85 1021.21 1021.54 1021.85 1022.12 1022.36 1022.56 1022.72
1011.22 1011.42 1011.66 1011.91 1012.18 1012.46 1012.75 1013.06 1013.38 1013.71 1014.07 1014.43 1014.79 1015.13 1015.45 1015.74 1015.98 1016.18 1016.35 1016.51 1016.68 1016.86 1017.08 1017.35 1017.67 1018.02 1018.42 1018.84 1019.27 1019.70 1020.13 1020.56 1020.97 1021.37 1021.75 1022.10 1022.41 1022.66
1011.00 1011.22 1011.47 1011.74 1012.02 1012.30 1012.57 1012.85 1013.13 1013.41 1013.70 1014.00 1014.30 1014.60 1014.88 1015.13 1015.36 1015.56 1015.75 1015.92 1016.09 1016.28 1016.49 1016.73 1017.02 1017.34 1017.70 1018.08 1018.49 1018.92 1019.36 1019.81 1020.28 1020.74 1021.19 1021.63 1022.02 1022.35
1010.73 1010.98 1011.25 1011.52 1011.80 1012.07 1012.32 1012.56 1012.79 1013.01 1013.24 1013.48 1013.72 1013.97 1014.21 1014.45 1014.68 1014.90 1015.10 1015.30 1015.50 1015.70 1015.92 1016.16 1016.42 1016.71 1017.03 1017.38 1017.75 1018.15 1018.58 1019.04 1019.51 1020.00 1020.49 1020.97 1021.41 1021.80
1010.42 1010.68 1010.96 1011.24 1011.50 1011.74 1011.96 1012.15 1012.32 1012.49 1012.65 1012.82 1013.01 1013.22 1013.44 1013.67 1013.91 1014.15 1014.38 1014.62 1014.85 1015.08 1015.32 1015.56 1015.82 1016.10 1016.39 1016.70 1017.05 1017.42 1017.82 1018.24 1018.70 1019.17 1019.66 1020.14 1020.59 1021.01
1010.07 1010.34 1010.61 1010.87 1011.10 1011.31 1011.47 1011.61 1011.72 1011.82 1011.92 1012.03 1012.17 1012.34 1012.54 1012.77 1013.02 1013.28 1013.55 1013.82 1014.09 1014.36 1014.62 1014.89 1015.16 1015.43 1015.71 1016.01 1016.33 1016.66 1017.02 1017.42 1017.83 1018.26 1018.71 1019.16 1019.59 1020.00
1009.69 1009.94 1010.19 1010.41 1010.60 1010.75 1010.85 1010.92 1010.97 1011.00 1011.04 1011.11 1011.20 1011.34 1011.52 1011.74 1012.00 1012.28 1012.57 1012.88 1013.18 1013.48 1013.78 1014.07 1014.36 1014.64 1014.93 1015.22 1015.52 1015.84 1016.17 1016.51 1016.88 1017.26 1017.65 1018.05 1018.45 1018.84
1009.27 1009.49 1009.69 1009.86 1009.99 1010.07 1010.11 1010.11 1010.10 1010.07 1010.06 1010.08 1010.14 1010.26 1010.42 1010.63 1010.88 1011.17 1011.48 1011.80 1012.13 1012.45 1012.77 1013.09 1013.39 1013.70 1013.99 1014.29 1014.59 1014.89 1015.20 1015.51 1015.83 1016.16 1016.51 1016.86 1017.22 1017.59
1008.80 1008.97 1009.11 1009.21 1009.27 1009.29 1009.26 1009.20 1009.13 1009.06 1009.01 1009.00 1009.03 1009.13 1009.27 1009.47 1009.72 1010.00 1010.30 1010.63 1010.96 1011.29 1011.62 1011.95 1012.27 1012.58 1012.90 1013.20 1013.51 1013.81 1014.11 1014.41 1014.70 1015.00 1015.31 1015.63 1015.96 1016.32
1008.26 1008.36 1008.44 1008.47 1008.46 1008.41 1008.33 1008.22 1008.11 1008.01 1007.94 1007.91 1007.93 1008.01 1008.14 1008.33 1008.56 1008.83 1009.12 1009.43 1009.74 1010.06 1010.39 1010.71 1011.03 1011.36 1011.68 1012.00 1012.32 1012.63 1012.94 1013.24 1013.53 1013.82 1014.12 1014.42 1014.75 1015.11
1007.62 1007.66 1007.66 1007.63 1007.57 1007.47 1007.35 1007.22 1007.09 1006.98 1006.90 1006.86 1006.88 1006.95 1007.08 1007.25 1007.46 1007.71 1007.98 1008.26 1008.55 1008.85 1009.16 1009.47 1009.78 1010.10 1010.43 1010.76 1011.09 1011.42 1011.75 1012.07 1012.38 1012.69 1013.00 1013.31 1013.65 1014.03
1006.90 1006.87 1006.82 1006.74 1006.63 1006.50 1006.36 1006.22 1006.09 1005.98 1005.91 1005.88 1005.90 1005.98 1006.10 1006.26 1006.46 1006.68 1006.93 1007.18 1007.45 1007.72 1008.01 1008.30 1008.60 1008.91 1009.24 1009.58 1009.92 1010.28 1010.63 1010.98 1011.32 1011.66 1011.99 1012.34 1012.70 1013.10
1006.11 1006.03 1005.93 1005.81 1005.68 1005.54 1005.40 1005.27 1005.15 1005.06 1005.01 1004.99 1005.02 1005.09 1005.21 1005.36 1005.54 1005.75 1005.98 1006.21 1006.46 1006.71 1006.97 1007.25 1007.54 1007.84 1008.17 1008.51 1008.87 1009.25 1009.62 1010.00 1010.38 1010.75 1011.13 1011.50 1011.90 1012.32
1005.31 1005.17 1005.04 1004.91 1004.78 1004.64 1004.52 1004.40 1004.30 1004.23 1004.18 1004.17 1004.20 1004.27 1004.38 1004.52 1004.69 1004.88 1005.09 1005.31 1005.55 1005.79 1006.05 1006.32 1006.60 1006.91 1007.24 1007.59 1007.96 1008.34 1008.74 1009.15 1009.55 1009.96 1010.36 1010.77 1011.18 1011.62
1004.55 1004.38 1004.23 1004.10 1003.97 1003.85 1003.75 1003.65 1003.56 1003.49 1003.45 1003.43 1003.44 1003.49 1003.57 1003.69 1003.84 1004.02 1004.22 1004.44 1004.68 1004.93 1005.19 1005.46 1005.76 1006.07 1006.40 1006.76 1007.13 1007.53 1007.94 1008.35 1008.78 1009.20 1009.63 1010.05 1010.48 1010.92
Thickness
5742 5740 5739 5738 5737 5735 5732 5728 5722 5717 5717 5718 5719 5718 5715 5712 5709 5708 5706 5703 5701 5698 5696 5693 5692 5690 5688 5686 5684 5683 5682 5681 5680 5679 5678 5677 5677 5677
5739 5737 5735 5735 5734 5732 5730 5727 5724 5720 5716 5717 5715 5715 5711 5710 5706 5705 5703 5700 5697 5695 5692 5690 5688 5686 5684 5682 5680 5678 5677 5675 5674 5673 5672 5672 5672 5672
5736 5734 5732 5730 5729 5729 5727 5724 5721 5718 5713 5713 5713 5711 5706 5704 5703 5701 5701 5698 5696 5692 5688 5686 5684 5682 5679 5677 5675 5673 5671 5670 5668 5667 5666 5666 5666 5666
5733 5731 5729 5728 5725 5725 5722 5720 5718 5715 5712 5707 5706 5706 5702 5700 5698 5697 5697 5696 5693 5688 5685 5682 5680 5678 5675 5673 5671 5669 5666 5664 5663 5661 5661 5660 5660 5660
5730 5727 5726 5723 5720 5720 5718 5717 5715 5714 5710 5706 5704 5702 5700 5698 5694 5693 5693 5689 5690 5686 5682 5679 5676 5674 5671 5669 5667 5664 5662 5660 5658 5656 5655 5654 5654 5653
5727 5725 5723 5720 5718 5715 5714 5711 5710 5708 5706 5704 5702 5699 5696 5693 5690 5688 5687 5685 5684 5683 5679 5676 5673 5670 5668 5665 5662 5660 5658 5655 5653 5651 5649 5648 5647 5646
5723 5722 5720 5716 5712 5710 5711 5708 5705 5704 5703 5701 5698 5695 5691 5687 5686 5685 5683 5681 5679 5678 5675 5673 5671 5668 5665 5661 5658 5655 5653 5650 5648 5646 5644 5642 5640 5639
5719 5717 5715 5711 5707 5703 5701 5699 5697 5697 5696 5694 5693 5689 5685 5684 5682 5680 5678 5676 5673 5673 5669 5669 5667 5665 5663 5660 5655 5652 5648 5645 5643 5641 5638 5636 5634 5633
5715 5712 5713 5710 5705 5702 5697 5693 5691 5688 5686 5686 5686 5683 5681 5680 5675 5673 5671 5669 5667 5667 5663 5662 5662 5660 5659 5656 5652 5647 5644 5640 5637 5635 5632 5630 5628 5626
5711 5708 5706 5703 5701 5697 5695 5692 5689 5686 5683 5681 5680 5678 5676 5674 5670 5668 5666 5663 5661 5661 5658 5656 5657 5655 5655 5651 5647 5643 5640 5636 5632 5629 5626 5624 5622 5620
5706 5704 5701 5698 5692 5688 5687 5686 5684 5682 5678 5674 5672 5670 5667 5665 5664 5663 5661 5658 5656 5656 5654 5651 5651 5649 5648 5647 5643 5638 5635 5631 5627 5624 5620 5617 5615 5613
5700 5698 5693 5690 5685 5681 5681 5680 5678 5677 5675 5671 5667 5664 5663 5661 5657 5656 5656 5653 5652 5650 5649 5645 5644 5643 5641 5641 5639 5634 5630 5626 5622 5619 5615 5612 5609 5607
5698 5696 5692 5683 5678 5675 5673 5674 5671 5668 5668 5666 5664 5663 5660 5658 5656 5653 5651 5649 5647 5646 5645 5640 5638 5637 5636 5635 5633 5630 5627 5623 5618 5614 5610 5607 5604 5603
5691 5691 5687 5678 5673 5669 5667 5666 5662 5659 5662 5661 5659 5657 5656 5654 5652 5648 5644 5642 5640 5639 5637 5635 5633 5631 5630 5627 5626 5625 5622 5619 5616 5612 5608 5604 5600 5598
5685 5680 5676 5670 5666 5664 5660 5657 5655 5656 5656 5653 5652 5650 5650 5648 5644 5641 5638 5635 5633 5632 5631 5628 5627 5626 5624 5622 5620 5618 5616 5613 5610 5607 5605 5602 5599 5596
5676 5672 5667 5663 5661 5659 5656 5653 5652 5651 5649 5646 5645 5644 5642 5640 5637 5635 5633 5631 5629 5628 5625 5622 5620 5618 5617 5616 5615 5613 5610 5608 5605 5603 5600 5598 5596 5594
5669 5667 5665 5662 5659 5657 5655 5652 5649 5646 5642 5640 5638 5636 5635 5633 5631 5629 5626 5625 5623 5622 5619 5617 5614 5612 5610 5609 5607 5605 5604 5602 5601 5598 5594 5593 5593 5591
5660 5661 5659 5657 5654 5653 5649 5646 5642 5640 5637 5634 5632 5630 5628 5626 5624 5622 5620 5618 5616 5615 5612 5611 5608 5605 5603 5602 5599 5599 5598 5597 5595 5593 5591 5589 5588 5587
5653 5654 5652 5650 5648 5645 5642 5639 5636 5633 5630 5627 5625 5623 5621 5620 5618 5615 5613 5611 5609 5608 5606 5604 5602 5599 5597 5596 5596 5592 5592 5591 5589 5588 5587 5586 5585 5583
5648 5647 5645 5643 5640 5637 5634 5631 5628 5625 5622 5619 5617 5615 5614 5613 5611 5609 5607 5605 5603 5601 5599 5598 5596 5594 5593 5592 5591 5589 5584 5585 5584 5583 5582 5580 5579 5576
5642 5640 5639 5636 5632 5629 5627 5623 5619 5617 5615 5612 5610 5607 5607 5605 5604 5603 5601 5596 5594 5593 5592 5590 5589 5586 5586 5584 5583 5583 5580 5576 5576 5576 5576 5574 5573 5572
5635 5633 5631 5627 5624 5621 5618 5615 5612 5610 5608 5606 5604 5602 5600 5599 5597 5596 5595 5593 5590 5588 5586 5584 5581 5579 5577 5577 5576 5576 5574 5571 5568 5566 5566 5565 5566 5566
5627 5625 5622 5619 5615 5612 5610 5607 5604 5602 5600 5599 5597 5595 5593 5592 5590 5589 5588 5587 5584 5582 5580 5578 5576 5573 5572 5570 5570 5570 5568 5566 5564 5562 5560 5558 5556 5554